Regional Weather Roundup
Issued by NWS Cleveland, OH

Home | Current Version | Previous Version | Graphics & Text | Print | Product List | Glossary On
Versions: 1 2 3 4 5 6 7 8 9 10 11 12 13 14 15 16 17 18 19 20 21 22 23 24 25 26 27 28 29 30 31 32 33 34 35 36 37 38 39 40 41 42 43 44 45 46 47 48 49 50
000
ASUS41 KCLE 110500
RWRCLE
OHIO REGIONAL WEATHER ROUNDUP
NATIONAL WEATHER SERVICE WILMINGTON, OH
100 AM EDT FRI JUL 11 2014

NOTE: "FAIR" INDICATES FEW OR NO CLOUDS BELOW 12,000 FEET WITH NO
SIGNIFICANT WEATHER AND/OR OBSTRUCTIONS TO VISIBILITY.

OHZ001>008-015>018-024>027-034-035-043-044-110600-
   NORTHWEST OHIO

CITY           SKY/WX    TMP DP  RH WIND       PRES   REMARKS
DEFIANCE       MOCLDY    62  55  77 CALM      30.19R
FINDLAY        CLEAR     66  58  75 E3        30.18R
TOLEDO EXPRESS CLEAR     60  57  89 CALM      30.19R
TOLEDO METCALF CLEAR     65  57  75 CALM      30.20R
LIMA           CLEAR     63  57  81 CALM      30.19R
$$

OHZ009>014-019>023-028>033-038-089-110600-
   NORTHEAST OHIO

CITY           SKY/WX    TMP DP  RH WIND       PRES   REMARKS
CLE-HOPKINS    CLEAR     67  54  63 E5        30.20R
CLE-LAKEFRONT  CLEAR     65  56  72 NE3       30.16S
CUY CO. ARPT   NOT AVBL
LORAIN-ELYRIA  CLEAR     63  58  83 CALM      30.19S
ASHTABULA      CLEAR     56  53  90 CALM      30.19S
AKRON-CANTON   CLOUDY    66  56  70 N5        30.18S
WOOSTER        NOT AVBL
MANSFIELD      CLEAR     62  56  80 N3        30.20R
YOUNGSTOWN     PTCLDY    61  55  81 NE5       30.18S
$$

OHZ042-051>053-060>062-070>072-077>081-110600-
  SOUTHWEST OHIO

CITY           SKY/WX    TMP DP  RH WIND       PRES   REMARKS
CINC-COVINGTON PTCLDY    70  54  56 NE5       30.18R
CINC-LUNKEN    CLEAR     62  59  90 CALM      30.17R
HAMILTON       CLEAR     61  58  90 CALM      30.18R
DAYTON         NOT AVBL
WRIGHT-PAT AFB CLEAR     66  56  71 N2        30.18S
DAYTON GENERAL CLEAR     63  56  78 NE5       30.18R
WILMINGTON     CLEAR     64  57  78 N3        30.18R
$$

OHZ036-037-039>041-045>050-054>059-063>069-073>076-082>088-110600-
  CENTRAL AND SOUTHEAST OHIO

CITY           SKY/WX    TMP DP  RH WIND       PRES   REMARKS
COLUMBUS       PTCLDY    69  58  67 NE3       30.16S
OSU AIRPORT    CLEAR     66  56  70 NE3       30.17S
BOLTON FIELD   NOT AVBL
RICKENBACK AFB NOT AVBL
NEWARK         PTCLDY    63  59  87 CALM      30.17R
MARION         CLEAR     63  58  83 NE3       30.19R
LANCASTER      PTCLDY    63  59  87 CALM      30.17R
ZANESVILLE     CLEAR     66  59  78 CALM      30.16S
NEW PHILLY     PTCLDY    65  61  87 CALM      30.17S
$$


USA.gov is the U.S. government's official web portal to all federal, state and local government web resources and services.